Stations météo

réclame
Mon MeteoGroup
Abbeville, France (7005): Température de l'air & dewpoint: 14.11.2017 12:00:00 - 20.11.2017 12:00:00 (CET)Abbeville, France (7005): Température de l'air 5cm: 14.11.2017 12:00:00 - 20.11.2017 12:00:00 (CET)Abbeville, France (7005): Température de l'air -20cm & Température de l'air -100cm: 14.11.2017 12:00:00 - 20.11.2017 12:00:00 (CET)Abbeville, France (7005): Vitesse du vent & gusts: 14.11.2017 12:00:00 - 20.11.2017 12:00:00 (CET)Abbeville, France (7005): Direction du vent: 14.11.2017 12:00:00 - 20.11.2017 12:00:00 (CET)Abbeville, France (7005): reduced air pressure: 14.11.2017 12:00:00 - 20.11.2017 12:00:00 (CET)Abbeville, France (7005): visibility: 14.11.2017 12:00:00 - 20.11.2017 12:00:00 (CET)Abbeville, France (7005): Ensoleillement: 14.11.2017 12:00:00 - 20.11.2017 12:00:00 (CET)Abbeville, France (7005): Quantités de précipitations: 14.11.2017 12:00:00 - 20.11.2017 12:00:00 (CET)
Date & Time tt [°C] td [°C] tt 5cm [°C] tt -20cm [°C] tt -100cm [°C] ff [km/h] ff [knt] fx [km/h] fx [knt] dd ppp [hPa] vv [km] sd [min] rr [mm]
20.11.2017 12:00:00 9,6 8,5 8,5 7,6 11,7 17 9 29 16 SW 1019,0 8 0 0,6
20.11.2017 11:00:00 9,0 7,4 8,0 7,6 11,7 18 10 34 18 SW 1019,4 8 0 0,0
20.11.2017 10:00:00 8,2 7,0 6,6 7,5 11,7 14 8 27 15 SSW 1019,6 10 0 0,2
20.11.2017 09:00:00 6,9 5,7 5,6 7,5 11,7 11 6 22 12 S 1020,1 18 0 0,0
20.11.2017 08:00:00 5,6 4,1 4,9 7,6 11,7 9 5 16 9 S 1020,6 10 0 0,0
20.11.2017 07:00:00 5,1 3,6 3,8 7,6 11,7 6 4 14 8 S 1021,2 18 0 0,0
20.11.2017 06:00:00 4,2 2,9 3,1 7,7 11,7 9 5 15 8 S 1021,3 20 0 0,0
20.11.2017 05:00:00 3,5 2,0 2,8 7,8 11,7 10 5 16 9 SSE 1021,9 20 0 0,0
20.11.2017 04:00:00 3,1 1,6 - 8,0 11,7 11 6 16 9 S 1022,4 20 0 0,0
20.11.2017 03:00:00 2,4 0,8 - - - 8 4 14 7 S 1023,4 20 0 0,0
20.11.2017 02:00:00 2,5 0,7 - - - 10 6 13 7 SSE 1023,7 20 0 0,0
20.11.2017 01:00:00 2,4 0,6 - - - 9 5 13 7 SSE 1024,5 19 0 0,0
20.11.2017 00:00:00 2,8 1,0 - - - 8 5 12 6 SSE 1024,8 20 0 0,0
19.11.2017 23:00:00 3,0 1,2 - - - 6 3 11 6 S 1025,1 18 0 0,0
19.11.2017 22:00:00 3,3 1,3 2,0 - - 5 3 9 5 S 1025,0 19 0 0,0
19.11.2017 21:00:00 4,6 2,0 3,7 8,6 11,7 5 3 8 4 S 1024,7 20 0 0,0
19.11.2017 20:00:00 4,4 1,4 3,5 8,7 11,8 4 2 8 4 SSW 1024,7 20 0 0,0
19.11.2017 19:00:00 4,4 1,2 - - - 6 4 9 5 W 1024,8 20 0 0,0
19.11.2017 18:00:00 4,3 1,3 1,8 - - 5 3 9 5 W 1024,3 20 0 0,0
19.11.2017 17:00:00 5,5 2,0 4,0 8,8 11,8 7 4 14 8 W 1024,2 40 0 0,0
19.11.2017 16:00:00 7,5 1,8 9,0 8,7 11,7 11 6 19 10 W 1024,1 40 9 0,0
19.11.2017 15:00:00 8,0 2,4 10,2 8,6 11,8 13 7 20 11 W 1023,9 40 60 0,0
19.11.2017 14:00:00 8,1 2,5 10,0 8,5 11,8 11 6 19 11 NW 1024,0 40 60 0,0
19.11.2017 13:00:00 7,9 2,1 10,0 8,4 11,8 12 6 19 10 WNW 1024,1 40 60 0,0
19.11.2017 12:00:00 7,3 2,8 10,1 8,4 11,8 10 5 16 8 NW 1024,2 40 60 0,0
19.11.2017 11:00:00 6,5 2,4 9,5 8,4 11,8 8 5 12 7 NNW 1024,1 40 60 0,0
19.11.2017 10:00:00 4,8 2,7 - 8,6 11,8 5 3 11 6 NW 1023,6 40 54 0,0
19.11.2017 09:00:00 3,5 2,3 - - - 9 5 11 6 NW 1022,9 40 11 0,0
19.11.2017 08:00:00 3,3 2,4 - - - 4 2 7 4 NW 1022,3 30 0 0,0
19.11.2017 07:00:00 3,6 2,7 - - - 6 3 8 4 NW 1021,8 20 0 0,0
19.11.2017 06:00:00 3,5 2,2 0,8 - - 4 2 13 7 NW 1021,3 20 0 0,0
19.11.2017 05:00:00 4,7 3,7 2,7 9,1 11,8 8 5 12 7 WNW 1021,3 19 0 0,2
19.11.2017 04:00:00 5,8 4,4 3,8 9,1 11,8 10 5 18 10 NW 1020,8 20 0 0,0
19.11.2017 03:00:00 6,6 5,9 4,6 9,1 11,8 9 5 13 7 NW 1020,6 15 0 0,0
19.11.2017 02:00:00 7,6 7,0 6,9 9,1 11,8 7 4 14 8 NW 1020,3 20 0 0,0
19.11.2017 01:00:00 7,8 7,4 7,5 9,1 11,8 7 4 13 7 W 1020,2 7 0 0,2
19.11.2017 00:00:00 7,8 7,2 7,6 9,1 11,8 9 5 22 12 NW 1020,1 7 0 2,0
18.11.2017 23:00:00 8,2 7,3 7,9 9,0 11,8 16 9 35 19 N 1019,9 4,4 0 1,1
18.11.2017 22:00:00 10,4 9,6 9,9 9,0 11,8 27 15 50 27 WNW 1019,6 4,3 0 3,6
18.11.2017 21:00:00 10,3 9,8 8,6 9,0 11,8 28 15 44 24 W 1019,6 4,0 0 2,4
18.11.2017 20:00:00 8,9 8,4 8,2 9,0 11,8 25 13 42 23 WSW 1020,1 3,0 0 3,8
18.11.2017 19:00:00 8,5 7,9 8,2 9,0 11,8 22 12 39 21 WSW 1020,5 2,3 0 2,7
18.11.2017 18:00:00 8,7 8,1 8,4 8,9 11,8 19 10 36 19 WSW 1021,2 2,5 0 2,0
18.11.2017 17:00:00 8,6 8,0 8,1 8,9 11,8 20 11 33 18 WSW 1021,5 3,0 0 1,4
18.11.2017 16:00:00 8,4 7,6 8,1 8,8 11,8 20 11 31 17 WSW 1022,1 3,5 0 1,6
18.11.2017 15:00:00 9,8 6,5 8,5 8,7 11,9 12 6 32 18 SW 1022,7 4,0 3 0,2
18.11.2017 14:00:00 10,4 6,2 10,5 8,6 11,8 21 11 31 17 W 1023,2 30 3 0,0
18.11.2017 13:00:00 9,9 5,9 8,7 8,5 11,8 16 8 23 12 W 1024,0 30 11 0,0
18.11.2017 12:00:00 8,5 4,7 8,2 8,5 11,9 11 6 18 10 W 1025,1 30 0 0,0
18.11.2017 11:00:00 8,1 4,3 6,8 8,5 11,8 10 5 15 8 WNW 1025,2 30 16 0,0
18.11.2017 10:00:00 5,9 3,6 5,2 8,5 11,8 5 3 8 4 SW 1025,4 30 1 0,0
18.11.2017 09:00:00 4,9 2,8 4,0 8,6 11,9 5 3 12 7 SW 1025,4 30 0 0,0
18.11.2017 08:00:00 4,1 3,1 2,7 8,7 11,9 6 4 10 5 SW 1025,3 20 0 0,0
18.11.2017 07:00:00 2,9 2,2 - - - 4 2 9 5 SSW 1025,4 15 0 0,0
18.11.2017 06:00:00 2,5 1,5 - 8,9 11,9 6 3 9 5 S 1025,4 15 0 0,0
18.11.2017 05:00:00 2,8 1,9 - - - 4 2 6 3 SSW 1025,8 8 0 0,0
18.11.2017 04:00:00 2,9 1,9 - - - 4 2 7 4 SSE 1025,9 11 0 0,0
18.11.2017 03:00:00 2,8 1,6 1,5 9,2 11,9 4 2 8 5 S 1026,6 8 0 0,0
18.11.2017 02:00:00 3,6 2,4 1,9 9,4 11,9 4 2 7 4 SSE 1027,0 15 0 0,0
18.11.2017 01:00:00 3,5 2,0 2,8 9,5 11,8 6 3 8 5 ESE 1027,3 15 0 0,0
18.11.2017 00:00:00 3,9 2,3 2,0 9,7 11,9 4 2 8 4 E 1027,5 15 0 0,0
17.11.2017 23:00:00 3,6 2,3 - - - 3 2 5 3 SE 1027,9 12 0 0,0
17.11.2017 22:00:00 3,8 2,2 1,1 9,9 11,9 2 1 5 3 S 1027,9 16 0 0,0
17.11.2017 21:00:00 4,5 2,7 1,4 10,1 11,9 3 1 10 5 S 1027,8 20 0 0,0
17.11.2017 20:00:00 6,2 2,8 2,4 10,2 11,9 4 2 6 4 WSW 1028,2 20 0 0,0
17.11.2017 19:00:00 6,6 2,9 3,6 10,3 11,9 0 0 5 3 N 1028,2 20 0 0,0
17.11.2017 18:00:00 7,2 3,4 3,8 10,4 11,9 5 3 7 4 ENE 1028,0 20 0 0,0
17.11.2017 17:00:00 8,1 3,7 5,5 10,3 11,9 4 2 7 4 ENE 1027,8 40 3 0,0
17.11.2017 16:00:00 9,6 5,0 9,6 10,2 11,9 5 3 11 6 NNE 1028,0 40 2 0,0
17.11.2017 15:00:00 10,6 3,8 10,0 10,1 11,9 0 0 10 5 N 1028,2 40 8 0,0
17.11.2017 14:00:00 11,2 4,4 13,4 9,9 11,9 6 3 11 6 NE 1028,3 35 46 0,0
17.11.2017 13:00:00 10,8 4,7 12,9 9,8 11,9 7 4 16 9 E 1028,5 30 58 0,0
17.11.2017 12:00:00 10,3 5,1 11,1 9,8 11,9 11 6 17 9 E 1028,6 30 58 0,0
17.11.2017 11:00:00 9,6 5,8 11,2 9,7 11,9 10 6 14 8 ENE 1028,9 20 54 0,0
17.11.2017 10:00:00 8,6 7,4 7,7 9,7 11,9 0 0 10 5 N 1028,8 15 16 0,0
17.11.2017 09:00:00 7,9 6,8 7,5 9,8 11,9 5 3 9 5 NNE 1028,7 15 0 0,0
17.11.2017 08:00:00 8,4 7,5 7,7 9,8 11,9 6 3 8 4 N 1028,3 20 0 0,0
17.11.2017 07:00:00 8,4 7,5 7,5 9,8 11,9 5 3 9 5 N 1028,0 18 0 0,0
17.11.2017 06:00:00 8,5 7,4 8,0 9,8 11,9 4 2 9 5 NE 1027,4 20 0 0,0
17.11.2017 05:00:00 8,7 7,3 8,1 9,8 11,9 6 3 9 5 ENE 1027,2 20 0 0,0
17.11.2017 04:00:00 8,9 7,5 8,5 9,9 11,9 3 2 19 10 NNE 1027,1 19 0 0,0
17.11.2017 03:00:00 9,1 7,7 8,6 9,9 11,9 11 6 18 10 NE 1026,7 20 0 0,0
17.11.2017 02:00:00 8,8 8,2 6,4 10,0 11,9 13 7 21 11 NE 1026,5 6 0 0,0
17.11.2017 01:00:00 8,0 6,9 5,8 10,0 11,9 0 0 7 4 N 1026,2 6 0 0,0
17.11.2017 00:00:00 8,3 6,9 6,2 10,1 11,9 5 3 9 5 SSW 1025,9 8 0 0,0
16.11.2017 23:00:00 9,3 7,6 8,4 10,1 11,9 5 3 9 5 SW 1025,7 12 0 0,0
16.11.2017 22:00:00 9,6 7,7 9,0 10,1 11,9 6 3 12 7 SW 1025,7 14 0 0,0
16.11.2017 21:00:00 9,9 7,8 9,6 10,1 11,9 7 4 11 6 SW 1025,5 16 0 0,0
16.11.2017 20:00:00 10,0 7,8 9,7 10,1 11,9 8 4 13 7 SW 1025,1 17 0 0,0
16.11.2017 19:00:00 10,2 8,0 9,9 10,1 11,9 7 4 11 6 SW 1024,8 15 0 0,0
16.11.2017 18:00:00 10,4 8,0 9,9 10,0 11,9 8 4 14 7 WSW 1024,4 20 0 0,0
16.11.2017 17:00:00 10,6 8,0 10,2 10,0 12,0 10 5 13 7 WSW 1024,2 20 0 0,0
16.11.2017 16:00:00 11,0 8,4 11,0 9,9 12,0 6 3 13 7 SW 1023,9 19 0 0,0
16.11.2017 15:00:00 11,0 8,2 11,4 9,9 11,9 8 5 16 8 SW 1023,8 19 0 0,0
16.11.2017 14:00:00 10,8 8,2 10,2 9,8 11,9 7 4 12 7 SSW 1023,9 16 0 0,0
16.11.2017 13:00:00 10,3 8,2 9,8 9,8 12,0 5 3 13 7 SSW 1024,2 14 0 0,0
16.11.2017 12:00:00 9,9 8,2 9,7 9,8 12,0 7 4 14 8 SW 1024,4 3,8 0 0,0
16.11.2017 11:00:00 9,7 8,0 9,5 9,7 12,0 5 3 15 8 S 1024,5 4,7 0 0,0
16.11.2017 10:00:00 9,5 7,6 8,9 9,7 12,0 8 5 14 8 S 1024,2 14 0 0,0
16.11.2017 09:00:00 9,1 7,5 8,5 9,8 12,0 7 4 12 7 S 1023,8 13 0 0,0
16.11.2017 08:00:00 8,9 7,5 8,2 9,8 12,0 6 3 11 6 S 1023,4 12 0 0,2
16.11.2017 07:00:00 8,9 7,3 8,3 9,8 12,0 6 3 11 6 S 1023,1 14 0 0,0
16.11.2017 06:00:00 9,1 7,5 8,6 9,8 12,0 6 3 13 7 S 1023,2 14 0 0,0
16.11.2017 05:00:00 9,2 7,8 9,0 9,8 12,0 6 4 12 7 S 1023,4 9 0 0,0
16.11.2017 04:00:00 9,3 8,1 8,9 9,8 12,0 6 4 11 6 S 1023,6 8 0 0,0
16.11.2017 03:00:00 9,3 8,1 9,0 9,8 12,0 5 3 13 7 S 1024,0 8 0 0,0
16.11.2017 02:00:00 9,3 8,2 9,1 9,9 12,0 7 4 13 7 S 1024,0 8 0 0,0
16.11.2017 01:00:00 9,4 8,5 8,8 9,9 12,0 8 5 16 8 SSE 1024,2 6 0 0,0
16.11.2017 00:00:00 9,2 8,4 7,7 9,9 12,0 6 4 10 5 SSE 1024,4 4,1 0 0,0
15.11.2017 23:00:00 9,7 8,6 8,9 9,9 12,0 6 3 11 6 SE 1024,5 6 0 0,0
15.11.2017 22:00:00 9,8 8,9 9,0 9,9 12,0 7 4 11 6 SSE 1024,9 9 0 0,0
15.11.2017 21:00:00 9,8 8,7 8,8 9,9 12,1 5 3 10 5 SSW 1024,8 10 0 0,0
15.11.2017 20:00:00 10,4 9,6 9,9 9,9 12,0 4 2 7 4 S 1024,9 6 0 0,0
15.11.2017 19:00:00 10,6 9,5 10,3 9,9 12,0 4 2 8 5 SSW 1024,9 7 0 0,0
15.11.2017 18:00:00 10,9 9,7 10,4 9,8 12,0 4 2 6 4 S 1025,1 10 0 0,0
15.11.2017 17:00:00 11,2 9,6 10,8 9,7 12,0 3 2 10 5 SSW 1025,0 15 0 0,0
15.11.2017 16:00:00 11,5 9,7 11,1 9,6 12,1 8 5 14 7 WSW 1025,3 18 0 0,0
15.11.2017 15:00:00 12,1 9,5 12,4 9,5 12,1 5 3 10 6 SSW 1025,0 20 0 0,0
15.11.2017 14:00:00 12,5 9,7 13,4 9,3 12,1 5 3 12 6 SSW 1025,0 20 0 0,0
15.11.2017 13:00:00 11,8 9,5 12,5 9,2 12,1 5 3 13 7 S 1025,6 20 0 0,0
15.11.2017 12:00:00 11,1 9,2 10,9 9,1 12,1 5 3 11 6 SSW 1026,1 12 0 0,0
15.11.2017 11:00:00 10,2 8,8 10,3 9,1 12,1 4 2 13 7 SSW 1026,1 12 1 0,0
15.11.2017 10:00:00 9,8 8,7 9,1 9,1 12,1 6 3 14 8 S 1026,0 12 6 0,0
15.11.2017 09:00:00 9,2 8,4 8,9 9,0 12,1 7 4 13 7 S 1026,1 6 0 0,0
15.11.2017 08:00:00 9,2 8,6 8,9 9,0 12,1 8 4 19 11 SSW 1025,7 6 0 0,0
15.11.2017 07:00:00 9,2 8,6 8,8 9,0 12,1 6 3 15 8 SSW 1025,4 6 0 0,0
15.11.2017 06:00:00 9,0 8,4 8,4 8,9 12,1 6 3 13 7 S 1025,0 4,2 0 0,0
15.11.2017 05:00:00 9,0 8,5 8,6 8,9 12,2 7 4 14 8 SSW 1025,2 3,6 0 0,0
15.11.2017 04:00:00 9,0 8,4 8,7 8,9 12,2 6 3 17 9 SSW 1025,6 1,4 0 0,4
15.11.2017 03:00:00 9,0 8,4 8,8 8,9 12,2 7 4 16 9 SSW 1025,9 1,7 0 1,0
15.11.2017 02:00:00 9,1 8,3 8,8 8,9 12,2 9 5 19 10 SSW 1025,8 6 0 0,0
15.11.2017 01:00:00 9,1 8,3 8,7 8,8 12,2 9 5 18 10 SSW 1025,9 7 0 0,6
15.11.2017 00:00:00 9,0 8,2 8,7 8,8 12,2 8 4 17 9 SSW 1026,0 4,0 0 0,0
14.11.2017 23:00:00 9,1 8,2 8,6 8,7 12,2 9 5 17 9 SSW 1025,9 5 0 0,0
14.11.2017 22:00:00 9,0 8,1 8,4 8,7 12,2 8 5 20 11 SSW 1025,8 10 0 0,0
14.11.2017 21:00:00 8,8 7,7 8,4 8,7 12,2 8 5 21 12 SSW 1026,0 8 0 0,0
14.11.2017 20:00:00 9,0 7,3 8,5 8,6 12,2 9 5 21 11 SSW 1026,0 6 0 0,0
14.11.2017 19:00:00 8,9 7,0 8,5 8,6 12,2 10 6 22 12 SSW 1025,6 20 0 0,0
14.11.2017 18:00:00 8,9 7,0 8,2 8,5 12,2 10 6 20 11 SW 1025,6 14 0 0,0
14.11.2017 17:00:00 9,2 6,8 8,9 8,4 12,3 11 6 24 13 SSW 1025,3 30 0 0,0
14.11.2017 16:00:00 - - - - - - - - - - - - - -
14.11.2017 15:00:00 10,0 6,7 10,3 8,0 12,3 10 6 21 12 SW 1025,4 30 0 0,0
14.11.2017 14:00:00 10,3 6,8 11,2 7,9 12,3 11 6 24 13 SW 1025,6 30 10 0,0
14.11.2017 13:00:00 9,8 6,3 10,0 7,8 12,3 11 6 21 12 SSW 1025,8 20 3 0,0
14.11.2017 12:00:00 9,0 5,0 8,8 7,7 12,3 11 6 19 11 SSW 1026,4 30 15 0,0

tt = Température de l'air
td = dewpoint
tt 5cm = Température de l'air 5cm
tt -20cm = Température de l'air -20cm
tt -100cm = Température de l'air -100cm
ff = Vitesse du vent
fx = gusts
dd = Direction du vent
ppp = reduced air pressure
vv = visibility
sd = Ensoleillement
rr = Quantités de précipitations

stations d'obs. à proximité